JIAOTONG VDES

Satellite information

Favourite Embed

Satellite Type and Status

PAYLOADIN ORBIT

Key statistics

Satellite JIAOTONG VDES at a glance.

Uptime

886

Days in orbit

Revolutions

≈ 14.5

Per day

Orbit

SSO

Sun Synchronous Orbit

Inclination

98.3

Latest

Satellite identification and parameters

Extended collection of information and parameters for JIAOTONG VDES.

Object identification

Identified? True

Debris? False

Object name: JIAOTONG VDES

International designator: 2022-164A

Object number (NORAD): 54588

Object ID (CCSDS): 54588

Country: PEOPLES REPUBLIC OF CHINA (PRC)

Current information (Y/N): Y

RCS size: LARGE

Orbital parameters

Period: 99.604 minutes

Inclination: 98.2702 deg

SMA: 7117.794 km

Apoapsis: 747.622 km

Periapsis: 731.697 km

RAAN: 155.6297 deg

Eccentricy: 0.0011187

Argument of periapsis: 109.6341 deg

Mean anomaly: 250.6059 deg

Mean motion: 14.45721428 rev/day

Mean motion (dot): 0.00000373 rev/day2

B* drag term: 0.00011718 1/REarth

Two-line elements (TLE)

Creation date: May 10, 2025, 11:16 p.m.

Reference frame: TEME

Reference center: EARTH

Epoch: May 10, 2025, 9:22 p.m. UTC

TLE line 0: 0 JIAOTONG VDES

TLE line 1: 1 54588U 22164A 25130.89095763 .00000373 00000-0 11718-3 0 9997

TLE line 2: 2 54588 98.2702 155.6297 0011187 109.6341 250.6059 14.45721428127945

Live tracking on map

Real-time ground track for satellite JIAOTONG VDES.

In-orbit conjunctions

There are no conjunctions computed for JIAOTONG VDES, at the moment. Check back to stay up to date, as we update our databases every day.

Go to all conjunctions

Associated space launch

Test satellite for CASIC's own Xingyun Low Earth Orbit communication satellite constellation, with a VHF Data Exchange System payload for maritime traffic operation uses.

JIAOTONG VDES was lifted into orbit during the mission ‘Kuaizhou 11 | Xingyun VDES’, on board a Kuaizhou-11 space rocket.

The launch took place on Dec. 7, 2022, 1:15 a.m. from Launch Area 95A.

For more information about the launch, click the button.

Launch to space Kuaizhou 11 | Xingyun VDES
Kuaizhou 11 | Xingyun VDES

Agency: N/A

Status: Launch Successful

Launch date: Dec. 7, 2022, 1:15 a.m. UTC

Rocket: Kuaizhou-11

Launch pad: Launch Area 95A

Location: Jiuquan Satellite Launch Center, People's Republic of China

...

Latest news about this satellite

There are no fresh news available about this satellite. Check back as we update our databases every day.


Newsletter sign-up

Weekly statistics, charts and insights to help you stay on top of the space industry.